Weather reports worldwide

Advertisment
Badajoz/Talavera La Real, Spain (8330): temperature & dewpoint: 17.08.2019 14:00:00 - 23.08.2019 14:00:00 (CEST)Badajoz/Talavera La Real, Spain (8330): wind speed: 17.08.2019 14:00:00 - 23.08.2019 14:00:00 (CEST)Badajoz/Talavera La Real, Spain (8330): wind direction: 17.08.2019 14:00:00 - 23.08.2019 14:00:00 (CEST)Badajoz/Talavera La Real, Spain (8330): reduced air pressure: 17.08.2019 14:00:00 - 23.08.2019 14:00:00 (CEST)Badajoz/Talavera La Real, Spain (8330): visibility: 17.08.2019 14:00:00 - 23.08.2019 14:00:00 (CEST)Badajoz/Talavera La Real, Spain (8330): precipitation: 17.08.2019 14:00:00 - 23.08.2019 14:00:00 (CEST)
Date & Time tt [°C] td [°C] ff [km/h] ff [kn] dd ppp [hPa] vv [km] rr [mm]
23.08.2019 14:00:00 - - - - - - - -
23.08.2019 13:00:00 32,9 14,0 9 5 ENE 1016,2 - 0,0
23.08.2019 12:00:00 31,4 13,2 9 5 E 1016,7 - 0,0
23.08.2019 11:00:00 29,5 14,5 9 5 E 1017,0 20 -
23.08.2019 10:00:00 25,2 14,6 4 2 SE 1017,0 - 0,0
23.08.2019 09:00:00 22,0 13,6 5 3 WNW 1016,7 - 0,0
23.08.2019 08:00:00 20,9 14,1 4 2 E 1016,5 20 -
23.08.2019 07:00:00 21,2 13,4 4 2 SE 1015,8 - 0,0
23.08.2019 06:00:00 22,2 12,7 5 3 ESE 1015,5 - 0,0
23.08.2019 05:00:00 23,8 11,1 4 2 WSW 1015,2 - -
23.08.2019 04:00:00 24,5 11,4 4 2 SSW 1014,9 - 0,0
23.08.2019 03:00:00 25,4 12,9 2 1 SSE 1014,9 - 0,0
23.08.2019 02:00:00 27,1 12,7 4 2 WSW 1014,8 - -
23.08.2019 01:00:00 29,5 12,9 5 3 SSW 1014,1 - 0,0
23.08.2019 00:00:00 27,6 9,4 2 1 WNW 1014,0 - 0,0
22.08.2019 23:00:00 28,9 10,1 0 0 N 1013,8 - -
22.08.2019 22:00:00 30,4 9,3 4 2 ENE 1013,6 - 0,0
22.08.2019 21:00:00 32,7 9,5 8 4 NNE 1013,3 - 0,0
22.08.2019 20:00:00 35,7 8,5 13 7 NE 1012,9 25 -
22.08.2019 19:00:00 36,7 7,7 13 7 NE 1013,0 - 0,0
22.08.2019 18:00:00 37,1 7,1 18 10 E 1013,4 - 0,0
22.08.2019 17:00:00 37,2 11,2 15 8 E 1014,0 20 -
22.08.2019 16:00:00 36,5 13,9 15 8 E 1014,5 - 0,0
22.08.2019 15:00:00 35,1 14,9 15 8 E 1015,3 - 0,0
22.08.2019 14:00:00 33,8 16,6 16 9 E 1016,0 20 -
22.08.2019 13:00:00 32,2 17,3 16 9 E 1016,7 - 0,0
22.08.2019 12:00:00 30,0 17,1 21 11 ENE 1017,3 - 0,0
22.08.2019 11:00:00 28,1 17,0 13 7 E 1017,4 20 -
22.08.2019 10:00:00 25,7 17,1 15 8 E 1017,5 - 0,0
22.08.2019 09:00:00 22,5 16,3 9 5 E 1017,3 - 0,0
22.08.2019 08:00:00 19,7 11,5 5 3 ESE 1016,8 20 -
22.08.2019 07:00:00 19,3 10,0 4 2 SSE 1016,4 - 0,0
22.08.2019 06:00:00 20,1 8,4 2 1 ESE 1016,1 - 0,0
22.08.2019 05:00:00 20,8 6,7 4 2 NE 1016,3 - -
22.08.2019 04:00:00 21,3 6,8 5 3 ESE 1016,3 - 0,0
22.08.2019 03:00:00 23,3 6,1 5 3 SW 1015,9 - 0,0
22.08.2019 02:00:00 23,5 6,3 5 3 WSW 1016,0 - -
22.08.2019 01:00:00 23,3 8,2 5 3 NE 1015,8 - 0,0
22.08.2019 00:00:00 24,6 5,9 4 2 SSE 1015,2 - 0,0
21.08.2019 23:00:00 28,2 3,1 8 4 S 1014,7 - -
21.08.2019 22:00:00 29,4 4,8 8 4 S 1014,1 - 0,0
21.08.2019 21:00:00 33,3 6,5 4 2 SW 1013,6 - 0,0
21.08.2019 20:00:00 34,8 3,4 4 2 N 1013,4 20 -
21.08.2019 19:00:00 35,3 0,4 5 3 NNE 1013,5 - 0,0
21.08.2019 18:00:00 35,5 3,9 11 6 ENE 1013,6 - 0,0
21.08.2019 17:00:00 35,1 9,5 9 5 ENE 1014,0 20 -
21.08.2019 16:00:00 33,8 11,6 9 5 NW 1014,7 - 0,0
21.08.2019 15:00:00 32,8 13,4 11 6 NNW 1015,3 - 0,0
21.08.2019 14:00:00 30,8 13,6 11 6 NW 1015,8 20 -
21.08.2019 13:00:00 28,9 12,7 9 5 N 1016,6 - 0,0
21.08.2019 12:00:00 27,7 11,7 5 3 NE 1016,9 - 0,0
21.08.2019 11:00:00 24,7 11,6 8 4 E 1017,0 20 -
21.08.2019 10:00:00 21,7 11,7 4 2 WNW 1017,1 - 0,0
21.08.2019 09:00:00 17,8 11,4 4 2 ESE 1017,2 - 0,0
21.08.2019 08:00:00 16,1 11,0 4 2 W 1016,7 20 -
21.08.2019 07:00:00 18,8 11,4 4 2 SE 1015,6 - 0,0
21.08.2019 06:00:00 19,7 11,5 5 3 SW 1015,2 - 0,0
21.08.2019 05:00:00 20,2 11,7 9 5 W 1015,1 - -
21.08.2019 04:00:00 21,2 12,3 8 4 WSW 1014,9 - 0,0
21.08.2019 03:00:00 22,1 12,6 5 3 WSW 1014,9 - 0,0
21.08.2019 02:00:00 22,9 12,5 8 4 W 1014,7 - -
21.08.2019 01:00:00 24,1 11,1 5 3 W 1014,8 - 0,0
21.08.2019 00:00:00 23,8 8,2 8 4 WNW 1014,7 - 0,0
20.08.2019 23:00:00 26,8 8,2 4 2 W 1014,2 - -
20.08.2019 22:00:00 29,6 8,6 5 3 SSW 1013,6 - 0,0
20.08.2019 21:00:00 32,2 9,7 4 2 S 1013,4 - 0,0
20.08.2019 20:00:00 33,9 9,2 5 3 ESE 1013,2 25 -
20.08.2019 19:00:00 34,6 8,4 4 2 SSE 1013,1 - 0,0
20.08.2019 18:00:00 33,5 8,2 8 4 NNE 1013,4 - 0,0
20.08.2019 17:00:00 33,7 7,6 9 5 E 1014,0 20 -
20.08.2019 16:00:00 32,7 8,9 8 4 E 1014,7 - 0,0
20.08.2019 15:00:00 30,6 12,9 5 3 NE 1015,3 - 0,0
20.08.2019 14:00:00 28,8 12,7 8 4 WNW 1016,2 15 -
20.08.2019 13:00:00 26,3 13,1 4 2 SSE 1016,8 - 0,0
20.08.2019 12:00:00 23,3 12,6 5 3 S 1017,3 - 0,0
20.08.2019 11:00:00 20,4 12,6 5 3 W 1017,2 15 -
20.08.2019 10:00:00 17,9 12,8 9 5 WNW 1017,2 - 0,0
20.08.2019 09:00:00 16,4 12,4 4 2 WSW 1017,0 - 0,0
20.08.2019 08:00:00 15,4 12,2 9 5 W 1016,7 15 -
20.08.2019 07:00:00 15,8 12,2 11 6 W 1016,3 - 0,0
20.08.2019 06:00:00 16,6 11,9 11 6 W 1016,2 - 0,0
20.08.2019 05:00:00 17,1 11,4 11 6 W 1015,6 - -
20.08.2019 04:00:00 17,9 10,8 13 7 W 1015,7 - 0,0
20.08.2019 03:00:00 18,5 10,8 16 9 W 1015,8 - 0,0
20.08.2019 02:00:00 19,0 11,1 15 8 W 1015,9 - -
20.08.2019 01:00:00 19,8 10,2 16 9 W 1016,1 - 0,0
20.08.2019 00:00:00 21,9 10,1 15 8 W 1015,6 - 0,0
19.08.2019 23:00:00 23,1 9,1 16 9 W 1015,2 - -
19.08.2019 22:00:00 24,6 8,5 26 14 W 1014,5 - 0,0
19.08.2019 21:00:00 27,2 9,5 24 13 W 1013,3 - 0,0
19.08.2019 20:00:00 30,6 1,9 16 9 WNW 1012,7 30 -
19.08.2019 19:00:00 31,9 2,0 15 8 W 1012,9 - 0,0
19.08.2019 18:00:00 32,7 1,7 18 10 WNW 1012,9 - 0,0
19.08.2019 17:00:00 32,4 2,4 21 11 WNW 1013,2 30 -
19.08.2019 16:00:00 31,4 9,0 15 8 NW 1013,9 - 0,0
19.08.2019 15:00:00 30,1 11,1 11 6 WNW 1014,7 - 0,0
19.08.2019 14:00:00 27,9 11,4 13 7 WNW 1015,1 30 -
19.08.2019 13:00:00 26,0 12,4 8 4 W 1015,7 - 0,0
19.08.2019 12:00:00 22,7 12,3 8 4 W 1016,1 - 0,0
19.08.2019 11:00:00 21,3 11,9 8 4 W 1016,1 30 -
19.08.2019 10:00:00 18,2 12,0 8 4 WNW 1016,3 - 0,0
19.08.2019 09:00:00 17,0 11,7 8 4 W 1016,3 - 0,0
19.08.2019 08:00:00 15,3 11,3 9 5 W 1016,3 30 -
19.08.2019 07:00:00 15,7 11,1 9 5 W 1016,1 - 0,0
19.08.2019 06:00:00 16,3 11,2 15 8 W 1015,8 - 0,0
19.08.2019 05:00:00 16,9 12,0 15 8 W 1015,6 - -
19.08.2019 04:00:00 18,0 12,7 11 6 W 1015,8 - 0,0
19.08.2019 03:00:00 19,1 13,3 16 9 WNW 1015,9 - 0,0
19.08.2019 02:00:00 20,7 15,5 15 8 W 1015,9 - -
19.08.2019 01:00:00 22,0 16,5 11 6 W 1015,9 - 0,0
19.08.2019 00:00:00 23,5 16,8 21 11 W 1015,4 - 0,0
18.08.2019 23:00:00 25,2 16,9 18 10 W 1014,8 - -
18.08.2019 22:00:00 27,3 16,9 21 11 WNW 1013,4 - 0,0
18.08.2019 21:00:00 29,6 16,4 26 14 WNW 1012,6 - 0,0
18.08.2019 20:00:00 32,5 15,5 16 9 W 1012,0 30 -
18.08.2019 19:00:00 32,9 15,0 18 10 WNW 1012,2 - 0,0
18.08.2019 18:00:00 33,3 14,8 21 11 WNW 1012,4 - 0,0
18.08.2019 17:00:00 33,9 12,3 18 10 WNW 1012,6 30 -
18.08.2019 16:00:00 32,8 13,4 15 8 W 1013,0 - 0,0
18.08.2019 15:00:00 31,7 14,4 15 8 W 1013,4 - 0,0
18.08.2019 14:00:00 29,8 14,7 16 9 W 1014,1 30 -
18.08.2019 13:00:00 28,2 15,1 11 6 W 1014,6 - 0,0
18.08.2019 12:00:00 25,8 15,5 13 7 W 1015,0 - 0,0
18.08.2019 11:00:00 22,9 16,0 11 6 W 1014,9 30 -
18.08.2019 10:00:00 20,4 15,8 13 7 W 1015,0 - 0,0
18.08.2019 09:00:00 18,6 15,8 4 2 WSW 1014,6 - 0,0
18.08.2019 08:00:00 16,9 15,1 4 2 SW 1014,4 30 -
18.08.2019 07:00:00 17,3 14,6 5 3 WSW 1013,9 - 0,0
18.08.2019 06:00:00 18,2 15,4 8 4 W 1013,2 - 0,0
18.08.2019 05:00:00 19,3 15,8 9 5 W 1013,4 - -
18.08.2019 04:00:00 19,6 15,7 13 7 W 1013,5 - 0,0
18.08.2019 03:00:00 21,1 15,2 11 6 W 1013,3 - 0,0
18.08.2019 02:00:00 22,7 15,0 11 6 W 1013,4 - -
18.08.2019 01:00:00 24,0 14,7 11 6 W 1012,9 - 0,0
18.08.2019 00:00:00 26,2 15,0 13 7 W 1012,5 - 0,0
17.08.2019 23:00:00 28,7 14,1 18 10 W 1011,9 - -
17.08.2019 22:00:00 31,4 7,8 5 3 W 1010,8 - 0,0
17.08.2019 21:00:00 34,3 8,8 11 6 W 1010,4 - 0,0
17.08.2019 20:00:00 36,8 3,9 8 4 SW 1010,1 40 -
17.08.2019 19:00:00 38,0 2,4 8 4 WSW 1010,5 - 0,0
17.08.2019 18:00:00 38,4 4,0 11 6 W 1011,0 - 0,0
17.08.2019 17:00:00 38,0 2,4 13 7 WSW 1011,3 40 -
17.08.2019 16:00:00 36,4 7,4 11 6 W 1012,1 - 0,0
17.08.2019 15:00:00 33,3 13,4 9 5 NW 1013,1 - 0,0
17.08.2019 14:00:00 30,5 13,7 8 4 WNW 1014,1 40 -

tt = temperature
td = dewpoint
ff = wind speed
dd = wind direction
ppp = reduced air pressure
vv = visibility
rr = precipitation

Next stations